Location: Newark
(49.8969°N, 3.3422°E)
Time: 21:01:08
(UTC+00:00)

A-11 Canister half - Pass Details

Date: 27 January 2020
Orbit: 1517 x 1683 km, 47.2° (Epoch: 26 February)

Event Time Altitude Azimuth Distance (km) Brightness Sun altitude
Rises 04:08:19 0° 284° (WNW) 4,678 - -31.9°
Reaches altitude 10° 04:11:26 10° 280° (W) 3,686 - -31.4°
Exits shadow 04:19:36 52° 222° (SW) 1,830 9.0 -30.1°
Maximum altitude 04:20:17 53° 208° (SSW) 1,814 9.1 -30.0°
Drops below altitude 10° 04:29:11 10° 135° (SE) 3,703 11.5 -28.5°
Sets 04:32:20 0° 131° (SE) 4,700 12.2 -28.0°
